Location: Dorchester
(45.9077°N, 64.5103°W)
Time: 10:13:25
(UTC+00:00)

ISS - Visible Passes

Search period start: 02 December 2021 00:00
Search period end: 12 December 2021 00:00
Orbit: 417 x 423 km, 51.6° (Epoch: 02 December)

Date Brightness Start Highest point End Pass type
(mag) Time Alt. Az. Time Alt. Az. Time Alt. Az.
02 Dec -2.9 21:36:03 10° WNW 21:39:13 34° N 21:41:14 18° ENE visible
02 Dec -1.3 23:12:53 10° WNW 23:14:14 22° WNW 23:14:14 22° WNW visible
03 Dec -3.9 22:25:40 10° WNW 22:29:04 74° NNE 22:29:10 73° NE visible
04 Dec -3.5 21:38:29 10° WNW 21:41:50 53° NNE 21:44:15 17° E visible
04 Dec -1.3 23:15:31 10° WNW 23:17:16 23° W 23:17:16 23° W visible
05 Dec -2.9 22:28:08 10° WNW 22:31:26 47° SW 22:32:32 33° SSE visible
06 Dec -3.6 21:40:51 10° WNW 21:44:15 74° SSW 21:47:37 10° SE visible
06 Dec -0.7 23:19:07 10° WSW 23:20:33 12° SW 23:21:06 12° SW visible
07 Dec -1.1 22:31:01 10° W 22:33:32 19° SW 22:36:01 10° S visible
08 Dec -1.7 21:43:25 10° WNW 21:46:26 30° SW 21:49:26 10° SSE visible
10 Dec -0.3 21:47:02 10° WSW 21:48:22 12° SW 21:49:43 10° SSW visible
